SCP
0 0 0 0 0 0 0 0 0 0 0 0 0 0 0 0 0 0 0 0 0 0 0 0 0 0 0 0 0 0 0 0 0 0 0 0 0 0 0 0 0 0 0
0 0 0 0 0 0 0 0 0 0 0 0 0 0 0 0 0 0 0 0 0 0 0 0 0 0 0 0 0 0 0 0 0 0 0 0 0 0 0 0 0 0 0
0 0 0 0 0 0 0 0 0 0 0 0 0 0 0 0 0 0 0 0 0 0 0 0 0 0 0 0 0 0 0 0 0 0 0 0 0 0 0 0 0 0 0
0 0 0 0 0 0 0 0 0 0 0 0 0 0 0 0 0 0 0 0 0 0 0 0 0 0 0 0 0 0 0 0 0 0 0 0 0 0 0 0 0 0 0
0 0 0 0 0 0 0 0 0 0 0 0 0 0 0 0 0 0 0 0 0 0 0 0 0 0 0 0 0 0 0 0 0 0 0 0 0 0 0 0 0 0 0
0 0 0 0 0 0 0 0 0 0 0 0 0 0 0 0 0 0 0 0 0 0 0 0 0 0 0 0 0 0 0 0 0 0 0 0 0 0 0 0 0 0 0
0 0 0 0 0 0 0 0 0 0 0 0 0 0 0 0 0 0 0 0 0 0 0 0 0 0 0 0 0 0 0 0 0 0 0 0 0 0 0 0 0 0 0
0 0 0 0 0 0 0 0 0 0 0 0 0 0 0 0 0 0 0 0 0 0 0 0 0 0 0 0 0 0 0 0 0 0 0 0 0 0 0 0 -0 -0 0
0 0 0 0 0 0 0 0 0 0 0 0 0 0 0 0 0 0 0 0 0 0 0 0 0 0 0 0 0 0 0 0 0 0 0 0 0 0 0 0 0 0 0
0 0 0 0 0 0 0 0 0 0 0 0 0 0 0 0 0 0 0 0 0 0 0 0 0 0 0 0 0 0 0 0 0 0 0 0 0 0 0 0 0 0 0
0 0 0 0 0 0 0 0 0 0 0 0 0 0 0 0 0 0 0 0 0 0 0 0 0 0 0 0 0 0 0 0 0 0 0 0 0 0 -0 0 0 0 0
0 0 0 0 0 0 0 0 0 0 0 0 0 0 0 0 0 0 0 0 0 0 0 0 0 0 0 0 0 0 0 0 0 0 0 0 0 0 -0 0 0 -0 0
0 0 0 0 0 0 0 0 0 0 0 0 0 0 0 0 0 0 0 0 0 0 0 0 0 0 0 0 0 0 0 0 0 0 0 0 0 0 0 0 0 -0 -0
0 0 0 0 0 0 0 0 0 0 0 0 0 0 0 0 0 0 0 0 0 0 0 0 0 0 0 0 0 0 0 0 0 0 0 0 0 -0 -0 -0 0 -0 -0
0 0 0 0 0 0 0 0 0 0 0 0 0 0 0 0 0 0 0 0 0 0 0 0 0 0 0 0 0 0 0 0 0 0 -0 0 0 -0 -0 -0 0 -0 -0
0 0 0 0 0 0 0 0 0 0 0 0 0 0 0 0 0 0 0 0 0 0 0 0 0 0 0 0 0 0 0 0 0 0 -0 -0 -0 0 -0 0 0 0 -0
0 0 0 0 0 0 0 0 0 0 0 0 0 0 0 0 0 0 0 0 0 0 0 0 0 0 0 0 0 0 0 0 0 0 0 -0 -0 -0 0 0 0 0 -0
0 0 0 0 0 0 0 0 0 0 0 0 0 0 0 0 0 0 0 0 0 0 0 0 0 0 0 0 0 0 0 0 0 0 0 -0 -0 -0 -0 0 0 0 -0
0 0 0 0 0 0 0 0 0 0 0 0 0 0 0 0 0 0 0 0 0 0 0 0 0 0 0 0 0 0 0 0 0 0 0 0 -0 -0 -0 0 0 0 -0
0 0 0 0 0 0 0 0 0 0 0 0 0 0 0 0 0 0 0 0 0 0 0 0 0 0 0 0 0 0 0 0 0 0 0 0 0 -0 -0 -0 0 0 0
0 0 0 0 0 0 0 0 0 0 0 0 0 0 0 0 0 0 0 0 0 0 0 0 0 0 0 0 0 0 0 0 0 0 0 0 0 -0 -0 -0 -0 0 0
0 0 0 0 0 0 0 0 0 0 0 0 0 0 0 0 0 0 0 0 0 0 0 0 0 0 0 0 0 0 0 0 0 0 0 0 0 0 -0 -0 -0 -0 0
0 0 0 0 0 0 0 0 0 0 0 0 0 0 0 0 0 0 0 0 0 0 0 0 0 0 0 0 0 0 0 0 0 0 0 0 0 0 0 -0 -0 -0 0
0 0 0 0 0 0 0 0 0 0 0 0 0 0 0 0 0 0 0 0 0 0 0 0 0 0 0 0 0 0 0 0 0 0 0 0 0 0 0 0 -0 -0 -0
0 0 0 0 0 0 0 0 0 0 0 0 0 0 0 0 0 0 0 0 0 0 0 0 0 0 0 0 0 0 0 0 0 0 0 0 0 0 0 0 0 -0 -0
0 0 0 0 0 0 0 0 0 0 0 0 0 0 0 0 0 0 0 0 0 0 0 0 0 0 0 0 0 0 0 0 0 0 0 0 0 0 0 0 0 0 0
Wind_Speed_500mb
10 2 14 13 12 10 15 19 21 26 28 30 32 33 32 32 35 40 45 43 43 39 30 30 32 33 36 41 48 52 56 58 67 75 72 68 62 58 57 58 59 59 59
13 17 19 16 15 19 21 23 25 28 30 32 34 33 34 35 35 36 45 39 31 28 27 30 33 35 42 48 52 52 55 57 63 71 73 67 59 57 57 56 54 49 52
22 20 22 21 21 23 24 26 28 30 32 34 34 33 36 33 41 33 34 29 27 27 27 27 33 38 45 48 45 46 50 52 54 59 67 62 60 55 53 49 48 48 45
21 26 25 27 26 26 28 29 30 32 34 34 34 35 36 37 31 27 24 25 25 25 22 26 36 41 41 37 45 41 40 44 47 49 53 53 51 49 51 52 49 44 47
28 28 27 27 28 29 31 31 32 33 32 34 35 35 35 34 25 20 24 23 23 23 30 35 38 40 52 52 43 38 37 38 40 43 50 56 51 52 48 53 48 41 41
30 28 27 28 28 30 32 33 33 32 34 34 33 31 30 24 27 33 26 18 22 29 35 36 33 33 31 42 37 45 44 40 44 50 51 53 53 50 47 53 47 42 45
26 26 27 28 29 31 33 33 34 34 35 34 30 26 23 22 30 26 23 28 24 30 31 30 30 28 34 32 35 43 41 42 47 51 51 48 51 47 48 48 43 40 41
22 25 26 27 31 31 31 33 34 35 34 31 29 26 22 26 31 29 26 29 25 27 26 27 27 27 30 45 46 37 39 38 38 41 44 52 51 52 50 49 47 46 44
19 23 23 26 28 31 32 32 33 33 31 30 28 24 24 29 33 35 30 30 25 26 25 25 26 27 33 43 44 38 39 38 35 43 48 52 46 39 36 37 37 39 43
18 18 27 26 26 31 32 32 31 29 26 29 27 23 25 27 37 39 32 33 24 24 23 22 30 42 45 44 42 40 38 37 45 43 38 36 34 35 38 32 30 34 35
23 29 27 25 27 30 30 29 28 26 27 27 29 23 23 28 29 36 37 32 22 24 23 22 21 41 41 40 38 36 36 51 41 35 37 31 31 32 31 28 31 34 35
31 30 26 27 28 26 30 30 28 30 28 26 29 30 27 27 34 40 35 28 29 31 27 23 28 37 37 35 34 33 39 32 33 34 30 29 31 32 31 31 30 32 35
33 29 27 25 26 28 32 31 33 31 29 26 25 24 23 27 30 33 34 32 30 28 27 27 34 34 32 30 28 35 36 29 30 31 29 29 32 35 34 40 35 25 24
27 24 25 28 31 34 28 31 29 29 28 27 25 24 27 25 23 28 33 29 29 32 25 29 38 27 30 33 30 24 26 28 30 28 31 30 30 32 33 32 37 45 21
29 31 31 31 28 35 31 32 30 28 29 27 28 29 30 36 31 34 31 27 31 30 36 38 23 24 24 23 23 24 24 25 27 27 28 29 30 29 30 32 33 35 29
30 31 28 28 31 32 33 36 34 36 33 40 45 48 47 44 39 36 36 35 33 34 34 24 22 26 24 23 23 24 23 25 26 24 24 27 29 29 28 29 30 28 30
31 30 30 32 32 34 37 41 41 36 39 39 43 43 44 44 40 36 34 32 32 35 33 21 25 27 25 22 23 24 24 24 27 23 24 24 25 26 27 26 26 26 24
31 33 34 33 42 43 39 44 43 44 46 47 43 42 41 40 40 37 33 34 36 35 30 27 26 25 24 22 22 23 24 23 20 21 20 23 24 22 22 24 24 25 24
33 32 43 41 39 44 50 49 45 46 47 50 48 45 41 38 36 34 37 41 36 35 32 31 29 30 30 26 26 29 26 24 23 20 19 22 22 22 19 20 21 23 22
37 42 46 50 53 55 55 48 49 47 49 51 51 46 38 36 41 39 40 41 43 42 41 38 35 33 33 32 30 27 22 21 21 20 19 18 19 17 20 21 18 20 20
46 51 54 58 61 58 56 57 48 52 54 53 50 50 49 43 44 41 44 43 42 43 43 41 41 41 40 40 34 28 24 20 23 21 17 15 18 14 17 18 20 16 17
54 56 55 55 55 56 57 55 55 48 49 50 50 48 52 52 52 45 43 46 48 48 47 45 43 43 44 41 33 32 28 26 22 20 18 18 14 13 15 14 17 18 15
57 52 52 53 53 57 57 55 52 49 49 49 49 46 45 52 51 46 46 43 42 45 50 51 52 50 49 49 48 41 33 26 25 23 19 16 13 12 14 11 14 15 16
46 48 49 48 49 51 51 52 49 47 47 45 42 41 42 44 47 48 47 49 51 53 54 53 56 60 55 48 49 43 38 32 29 26 19 19 15 12 11 10 9 15 14
53 55 59 49 43 46 50 45 47 47 41 38 39 39 39 40 42 44 45 47 49 51 54 58 62 61 54 52 53 47 40 35 28 25 24 19 18 16 13 9 9 6 13
70 63 58 44 42 42 44 47 51 44 42 43 46 46 45 45 47 49 50 52 53 54 53 54 55 61 63 55 52 49 46 42 32 27 25 23 18 13 10 11 12 8 6
Wind_Direction_500mb
255 350 201 203 227 265 290 306 312 309 309 309 308 306 305 298 289 288 284 287 286 283 264 277 286 292 292 298 298 296 293 293 293 297 297 300 300 300 298 296 296 294 292
189 262 212 220 241 271 289 297 302 304 306 308 306 303 301 299 295 291 295 290 289 284 278 282 289 297 300 301 299 296 296 294 295 297 297 298 298 301 300 298 297 294 290
253 211 220 235 255 271 285 291 297 300 304 305 302 303 300 294 291 296 295 294 288 285 291 293 295 300 301 300 297 295 294 294 294 295 296 299 301 302 300 300 298 297 291
209 218 234 246 260 271 281 288 293 296 302 305 304 302 299 299 295 292 294 293 289 289 291 299 300 301 298 292 302 301 300 297 297 294 296 299 300 301 299 299 300 297 298
214 228 241 252 264 273 281 287 291 291 302 305 305 301 299 290 282 273 298 293 286 294 299 301 301 292 293 300 312 305 304 303 299 297 297 300 301 301 302 299 300 300 301
220 233 245 258 267 276 283 287 291 292 298 302 301 300 296 296 278 298 298 279 295 298 303 300 299 302 301 303 311 308 304 302 298 296 298 298 299 299 300 298 296 300 301
227 242 255 268 276 283 287 290 289 289 297 300 299 302 299 292 285 298 295 300 304 300 300 300 301 304 308 298 298 303 305 308 302 298 288 294 300 301 302 307 301 294 290
230 256 261 276 285 287 289 289 289 290 292 293 290 289 286 271 271 292 299 312 304 302 300 300 303 303 304 297 307 311 308 306 303 298 293 294 294 295 292 288 289 292 290
252 254 275 285 292 293 292 290 289 289 288 290 287 283 280 270 274 285 295 307 304 302 302 304 294 305 292 308 315 312 311 309 307 297 297 298 303 304 298 293 287 283 284
251 272 282 288 291 289 289 291 292 286 287 288 281 275 270 259 271 281 293 307 299 302 303 303 308 305 311 318 318 316 311 312 310 312 310 311 310 305 302 281 280 277 280
281 294 295 294 293 290 294 295 288 283 281 276 274 277 266 269 267 278 291 301 296 296 303 306 301 291 314 321 319 316 308 316 322 322 315 315 317 316 313 301 286 277 271
294 295 298 293 291 292 294 289 280 281 277 269 269 268 267 261 270 287 301 289 292 301 305 300 297 308 315 318 322 320 323 334 332 316 318 320 322 321 321 313 300 281 276
297 303 297 296 295 300 295 293 281 277 273 267 266 263 270 270 273 275 293 297 297 300 308 308 316 321 327 331 319 332 346 326 324 321 321 320 322 324 325 328 328 302 270
303 299 292 301 299 295 299 295 281 272 272 266 259 255 269 272 273 276 285 291 297 303 318 305 312 331 333 331 332 322 318 318 325 325 316 320 324 327 330 333 338 348 279
303 303 301 303 302 298 295 288 285 279 260 264 255 258 263 268 275 263 260 264 279 280 291 302 315 307 310 314 315 316 320 319 325 324 326 325 326 328 330 340 339 347 353
308 304 301 289 293 292 293 292 295 293 276 265 261 263 275 274 282 276 272 267 268 275 286 290 295 301 306 310 312 313 316 320 314 330 329 330 327 330 333 341 341 346 356
302 309 305 300 294 289 290 294 294 295 289 281 265 267 276 274 281 277 277 270 271 274 281 280 283 291 299 304 305 307 309 307 327 323 327 329 331 333 339 339 341 345 344
302 304 308 299 295 292 289 281 283 287 287 286 284 279 276 276 283 274 270 265 264 269 269 263 272 284 289 293 296 298 298 304 311 314 326 325 330 337 339 336 338 340 341
296 292 296 302 299 297 303 307 286 284 286 286 283 278 272 281 279 271 262 260 255 253 255 264 267 274 280 281 282 287 295 300 303 319 322 320 327 332 336 335 337 338 344
285 286 290 296 300 303 304 299 293 287 282 288 282 269 270 264 272 276 268 265 261 258 258 254 255 258 263 269 276 284 289 304 304 301 301 314 316 327 329 333 337 339 339
285 283 283 288 295 298 295 295 295 289 285 286 284 275 268 261 263 267 266 269 264 261 263 263 262 265 268 274 273 269 274 278 284 284 292 299 305 329 324 328 330 337 336
277 280 289 295 296 294 292 290 289 293 286 289 288 284 270 262 268 265 264 264 264 263 264 264 263 261 267 269 267 267 269 271 279 280 281 290 305 305 310 322 327 330 339
285 287 294 297 293 292 291 287 287 290 293 291 291 286 275 259 269 271 276 274 271 264 261 260 261 262 260 263 264 265 261 265 269 270 279 282 288 290 293 310 316 328 329
277 281 287 290 302 305 297 290 288 292 294 293 294 287 279 272 271 276 277 276 276 275 269 261 258 260 262 259 260 264 263 263 270 277 275 275 276 281 285 290 304 308 333
273 277 284 289 291 300 303 301 291 289 288 293 295 295 291 286 282 282 283 283 283 282 280 277 271 267 258 257 261 263 264 263 270 275 277 269 267 266 274 274 279 283 304
293 292 277 279 282 293 297 295 289 286 290 288 290 287 286 287 287 286 286 285 283 280 279 279 276 273 272 254 252 255 254 255 256 264 262 260 256 256 254 265 276 278 276
Wind_Speed_850mb
10 2 14 13 12 10 15 19 21 26 28 30 32 33 32 32 35 40 45 43 43 39 30 30 32 33 36 41 48 52 56 58 67 75 72 68 62 58 57 58 59 59 59
13 17 19 16 15 19 21 23 25 28 30 32 34 33 34 35 35 36 45 39 31 28 27 30 33 35 42 48 52 52 55 57 63 71 73 67 59 57 57 56 54 49 52
22 20 22 21 21 23 24 26 28 30 32 34 34 33 36 33 41 33 34 29 27 27 27 27 33 38 45 48 45 46 50 52 54 59 67 62 60 55 53 49 48 48 45
21 26 25 27 26 26 28 29 30 32 34 34 34 35 36 37 31 27 24 25 25 25 22 26 36 41 41 37 45 41 40 44 47 49 53 53 51 49 51 52 49 44 47
28 28 27 27 28 29 31 31 32 33 32 34 35 35 35 34 25 20 24 23 23 23 30 35 38 40 52 52 43 38 37 38 40 43 50 56 51 52 48 53 48 41 41
30 28 27 28 28 30 32 33 33 32 34 34 33 31 30 24 27 33 26 18 22 29 35 36 33 33 31 42 37 45 44 40 44 50 51 53 53 50 47 53 47 42 45
26 26 27 28 29 31 33 33 34 34 35 34 30 26 23 22 30 26 23 28 24 30 31 30 30 28 34 32 35 43 41 42 47 51 51 48 51 47 48 48 43 40 41
22 25 26 27 31 31 31 33 34 35 34 31 29 26 22 26 31 29 26 29 25 27 26 27 27 27 30 45 46 37 39 38 38 41 44 52 51 52 50 49 47 46 44
19 23 23 26 28 31 32 32 33 33 31 30 28 24 24 29 33 35 30 30 25 26 25 25 26 27 33 43 44 38 39 38 35 43 48 52 46 39 36 37 37 39 43
18 18 27 26 26 31 32 32 31 29 26 29 27 23 25 27 37 39 32 33 24 24 23 22 30 42 45 44 42 40 38 37 45 43 38 36 34 35 38 32 30 34 35
23 29 27 25 27 30 30 29 28 26 27 27 29 23 23 28 29 36 37 32 22 24 23 22 21 41 41 40 38 36 36 51 41 35 37 31 31 32 31 28 31 34 35
31 30 26 27 28 26 30 30 28 30 28 26 29 30 27 27 34 40 35 28 29 31 27 23 28 37 37 35 34 33 39 32 33 34 30 29 31 32 31 31 30 32 35
33 29 27 25 26 28 32 31 33 31 29 26 25 24 23 27 30 33 34 32 30 28 27 27 34 34 32 30 28 35 36 29 30 31 29 29 32 35 34 40 35 25 24
27 24 25 28 31 34 28 31 29 29 28 27 25 24 27 25 23 28 33 29 29 32 25 29 38 27 30 33 30 24 26 28 30 28 31 30 30 32 33 32 37 45 21
29 31 31 31 28 35 31 32 30 28 29 27 28 29 30 36 31 34 31 27 31 30 36 38 23 24 24 23 23 24 24 25 27 27 28 29 30 29 30 32 33 35 29
30 31 28 28 31 32 33 36 34 36 33 40 45 48 47 44 39 36 36 35 33 34 34 24 22 26 24 23 23 24 23 25 26 24 24 27 29 29 28 29 30 28 30
31 30 30 32 32 34 37 41 41 36 39 39 43 43 44 44 40 36 34 32 32 35 33 21 25 27 25 22 23 24 24 24 27 23 24 24 25 26 27 26 26 26 24
31 33 34 33 42 43 39 44 43 44 46 47 43 42 41 40 40 37 33 34 36 35 30 27 26 25 24 22 22 23 24 23 20 21 20 23 24 22 22 24 24 25 24
33 32 43 41 39 44 50 49 45 46 47 50 48 45 41 38 36 34 37 41 36 35 32 31 29 30 30 26 26 29 26 24 23 20 19 22 22 22 19 20 21 23 22
37 42 46 50 53 55 55 48 49 47 49 51 51 46 38 36 41 39 40 41 43 42 41 38 35 33 33 32 30 27 22 21 21 20 19 18 19 17 20 21 18 20 20
46 51 54 58 61 58 56 57 48 52 54 53 50 50 49 43 44 41 44 43 42 43 43 41 41 41 40 40 34 28 24 20 23 21 17 15 18 14 17 18 20 16 17
54 56 55 55 55 56 57 55 55 48 49 50 50 48 52 52 52 45 43 46 48 48 47 45 43 43 44 41 33 32 28 26 22 20 18 18 14 13 15 14 17 18 15
57 52 52 53 53 57 57 55 52 49 49 49 49 46 45 52 51 46 46 43 42 45 50 51 52 50 49 49 48 41 33 26 25 23 19 16 13 12 14 11 14 15 16
46 48 49 48 49 51 51 52 49 47 47 45 42 41 42 44 47 48 47 49 51 53 54 53 56 60 55 48 49 43 38 32 29 26 19 19 15 12 11 10 9 15 14
53 55 59 49 43 46 50 45 47 47 41 38 39 39 39 40 42 44 45 47 49 51 54 58 62 61 54 52 53 47 40 35 28 25 24 19 18 16 13 9 9 6 13
70 63 58 44 42 42 44 47 51 44 42 43 46 46 45 45 47 49 50 52 53 54 53 54 55 61 63 55 52 49 46 42 32 27 25 23 18 13 10 11 12 8 6
Wind_Direction_850mb
255 350 201 203 227 265 290 306 312 309 309 309 308 306 305 298 289 288 284 287 286 283 264 277 286 292 292 298 298 296 293 293 293 297 297 300 300 300 298 296 296 294 292
189 262 212 220 241 271 289 297 302 304 306 308 306 303 301 299 295 291 295 290 289 284 278 282 289 297 300 301 299 296 296 294 295 297 297 298 298 301 300 298 297 294 290
253 211 220 235 255 271 285 291 297 300 304 305 302 303 300 294 291 296 295 294 288 285 291 293 295 300 301 300 297 295 294 294 294 295 296 299 301 302 300 300 298 297 291
209 218 234 246 260 271 281 288 293 296 302 305 304 302 299 299 295 292 294 293 289 289 291 299 300 301 298 292 302 301 300 297 297 294 296 299 300 301 299 299 300 297 298
214 228 241 252 264 273 281 287 291 291 302 305 305 301 299 290 282 273 298 293 286 294 299 301 301 292 293 300 312 305 304 303 299 297 297 300 301 301 302 299 300 300 301
220 233 245 258 267 276 283 287 291 292 298 302 301 300 296 296 278 298 298 279 295 298 303 300 299 302 301 303 311 308 304 302 298 296 298 298 299 299 300 298 296 300 301
227 242 255 268 276 283 287 290 289 289 297 300 299 302 299 292 285 298 295 300 304 300 300 300 301 304 308 298 298 303 305 308 302 298 288 294 300 301 302 307 301 294 290
230 256 261 276 285 287 289 289 289 290 292 293 290 289 286 271 271 292 299 312 304 302 300 300 303 303 304 297 307 311 308 306 303 298 293 294 294 295 292 288 289 292 290
252 254 275 285 292 293 292 290 289 289 288 290 287 283 280 270 274 285 295 307 304 302 302 304 294 305 292 308 315 312 311 309 307 297 297 298 303 304 298 293 287 283 284
251 272 282 288 291 289 289 291 292 286 287 288 281 275 270 259 271 281 293 307 299 302 303 303 308 305 311 318 318 316 311 312 310 312 310 311 310 305 302 281 280 277 280
281 294 295 294 293 290 294 295 288 283 281 276 274 277 266 269 267 278 291 301 296 296 303 306 301 291 314 321 319 316 308 316 322 322 315 315 317 316 313 301 286 277 271
294 295 298 293 291 292 294 289 280 281 277 269 269 268 267 261 270 287 301 289 292 301 305 300 297 308 315 318 322 320 323 334 332 316 318 320 322 321 321 313 300 281 276
297 303 297 296 295 300 295 293 281 277 273 267 266 263 270 270 273 275 293 297 297 300 308 308 316 321 327 331 319 332 346 326 324 321 321 320 322 324 325 328 328 302 270
303 299 292 301 299 295 299 295 281 272 272 266 259 255 269 272 273 276 285 291 297 303 318 305 312 331 333 331 332 322 318 318 325 325 316 320 324 327 330 333 338 348 279
303 303 301 303 302 298 295 288 285 279 260 264 255 258 263 268 275 263 260 264 279 280 291 302 315 307 310 314 315 316 320 319 325 324 326 325 326 328 330 340 339 347 353
308 304 301 289 293 292 293 292 295 293 276 265 261 263 275 274 282 276 272 267 268 275 286 290 295 301 306 310 312 313 316 320 314 330 329 330 327 330 333 341 341 346 356
302 309 305 300 294 289 290 294 294 295 289 281 265 267 276 274 281 277 277 270 271 274 281 280 283 291 299 304 305 307 309 307 327 323 327 329 331 333 339 339 341 345 344
302 304 308 299 295 292 289 281 283 287 287 286 284 279 276 276 283 274 270 265 264 269 269 263 272 284 289 293 296 298 298 304 311 314 326 325 330 337 339 336 338 340 341
296 292 296 302 299 297 303 307 286 284 286 286 283 278 272 281 279 271 262 260 255 253 255 264 267 274 280 281 282 287 295 300 303 319 322 320 327 332 336 335 337 338 344
285 286 290 296 300 303 304 299 293 287 282 288 282 269 270 264 272 276 268 265 261 258 258 254 255 258 263 269 276 284 289 304 304 301 301 314 316 327 329 333 337 339 339
285 283 283 288 295 298 295 295 295 289 285 286 284 275 268 261 263 267 266 269 264 261 263 263 262 265 268 274 273 269 274 278 284 284 292 299 305 329 324 328 330 337 336
277 280 289 295 296 294 292 290 289 293 286 289 288 284 270 262 268 265 264 264 264 263 264 264 263 261 267 269 267 267 269 271 279 280 281 290 305 305 310 322 327 330 339
285 287 294 297 293 292 291 287 287 290 293 291 291 286 275 259 269 271 276 274 271 264 261 260 261 262 260 263 264 265 261 265 269 270 279 282 288 290 293 310 316 328 329
277 281 287 290 302 305 297 290 288 292 294 293 294 287 279 272 271 276 277 276 276 275 269 261 258 260 262 259 260 264 263 263 270 277 275 275 276 281 285 290 304 308 333
273 277 284 289 291 300 303 301 291 289 288 293 295 295 291 286 282 282 283 283 283 282 280 277 271 267 258 257 261 263 264 263 270 275 277 269 267 266 274 274 279 283 304
293 292 277 279 282 293 297 295 289 286 290 288 290 287 286 287 287 286 286 285 283 280 279 279 276 273 272 254 252 255 254 255 256 264 262 260 256 256 254 265 276 278 276